GFSNGP_2pvu_pres_168.txt.gz
Presure
209 205 204 206 216 211 219 221 215 197 217 221 214 209 208 207 206 205 203 203 204 202 202 201 204 203 194 195 192 192 198 200 198 187 200 208 204 212 207 211 209 193 195 203
185 186 192 193 192 196 199 200 203 207 206 206 201 200 198 198 199 200 199 197 196 196 194 209 198 204 197 193 194 200 206 188 183 188 171 195 195 204 204 211 192 202 198 209
197 166 140 185 154 140 183 189 195 195 187 186 185 186 189 186 182 180 191 196 196 195 197 192 176 184 206 193 199 198 186 195 203 175 201 188 182 187 188 160 184 192 174 204
183 199 177 154 171 166 181 187 166 174 165 183 150 184 166 153 187 189 191 186 164 161 161 180 169 181 200 201 139 148 198 196 187 201 204 174 163 143 150 175 177 181 203 201
181 226 230 187 192 211 198 204 178 178 220 180 172 171 209 198 211 132 210 203 169 169 173 177 179 172 169 171 240 187 192 209 241 201 205 158 200 178 219 171 204 211 212 209
183 155 231 162 159 147 196 151 217 213 176 180 211 216 152 167 170 185 204 187 183 182 178 178 177 198 253 170 142 218 173 184 212 178 159 252 142 130 203 150 193 149 200 210
152 155 215 168 147 213 203 181 158 194 215 214 207 200 203 229 180 167 209 151 178 210 225 211 208 223 240 237 162 176 168 211 173 138 145 155 162 157 210 203 166 234 202 219
191 186 199 217 217 193 192 226 215 218 160 181 179 219 208 217 209 231 164 187 207 187 169 224 239 222 214 236 186 164 130 176 205 214 225 227 245 179 158 207 196 233 223 218
190 164 211 180 191 141 223 179 193 156 155 233 233 232 230 223 226 224 222 227 205 226 235 234 246 204 224 208 223 245 233 252 149 135 181 254 279 143 154 244 271 274 260 249
191 203 195 182 178 202 199 204 195 218 206 225 233 232 246 85 235 192 227 230 215 248 239 233 235 246 238 239 231 178 257 247 252 253 281 275 253 303 264 262 244 239 284 235
204 202 205 201 202 202 198 231 217 211 228 215 210 209 211 225 223 242 234 231 236 240 240 248 260 244 265 258 252 240 277 281 247 255 264 273 265 239 297 267 303 300 297 244
215 206 208 199 243 208 218 182 223 250 212 226 226 253 228 206 221 102 223 222 220 229 221 248 247 261 141 225 261 279 277 287 302 300 245 317 275 261 251 239 258 284 251 247
210 214 207 202 255 266 225 203 262 231 213 213 215 214 85 220 228 238 245 226 222 93 234 280 289 254 251 227 315 311 212 231 282 249 295 288 271 273 262 251 258 258 268 273
222 203 204 209 250 229 231 260 227 212 258 239 281 223 242 227 283 286 252 239 238 218 245 289 286 300 302 307 322 315 310 311 303 303 298 300 291 285 287 291 264 284 268 257
222 224 222 219 210 252 225 245 294 293 265 264 275 298 299 271 266 300 223 297 296 233 248 289 313 318 326 325 327 323 319 313 313 313 308 301 303 298 296 301 285 261 273 300
257 224 226 276 206 261 277 312 331 320 289 314 311 297 306 308 302 297 294 316 313 314 362 362 353 347 344 348 341 333 329 327 328 328 323 315 314 310 302 303 296 272 96 253
231 269 279 303 304 309 320 257 311 309 322 311 307 297 297 316 314 324 375 386 377 377 374 365 362 364 364 361 356 352 350 353 354 349 334 334 334 330 281 325 318 322 316 102
271 287 301 305 316 319 313 273 319 332 320 276 351 370 368 357 353 343 331 334 348 361 367 361 359 368 366 363 363 367 372 368 362 353 350 369 369 367 359 357 355 353 345 339
301 296 295 360 353 349 363 325 344 287 283 290 323 319 312 324 341 373 398 403 404 398 396 388 385 378 380 378 380 381 382 386 395 393 386 392 382 368 360 360 364 373 366 358
348 350 309 311 317 331 323 317 316 315 338 341 362 385 394 391 389 386 381 376 365 362 365 361 358 359 358 358 358 359 358 360 363 364 366 374 379 378 383 384 387 377 373 376
330 352 354 354 353 347 357 363 388 398 387 384 380 376 369 364 362 363 359 354 345 349 346 340 338 347 353 364 442 441 446 450 475 498 485 465 472 483 473 385 395 376 376 383
372 381 384 383 380 383 384 378 370 366 358 352 350 353 357 354 353 351 372 421 418 408 409 404 397 397 401 402 402 401 406 409 501 501 503 430 434 444 457 470 479 486 373 367
389 384 385 375 370 369 361 348 343 343 352 347 345 344 344 346 327 375 400 393 396 395 396 392 399 397 398 397 399 418 438 458 468 466 468 450 417 427 446 449 455 463 477 444
367 363 356 352 351 346 344 342 350 346 343 347 344 370 381 381 377 378 398 395 388 385 385 384 403 411 413 414 417 420 426 454 452 452 450 410 413 421 430 437 440 445 454 466
344 343 344 345 340 357 451 451 450 435 420 404 392 387 388 396 405 407 419 423 416 417 411 395 389 383 385 391 387 405 419 430 427 426 423 409 406 412 419 421 428 432 435 442
335 341 325 429 424 427 431 447 465 472 434 408 399 393 406 418 404 380 373 366 361 364 363 372 372 375 392 414 391 410 414 415 413 409 409 407 400 399 408 412 414 418 422 421
319 323 360 341 338 353 361 369 395 430 423 385 369 355 353 351 351 358 353 348 351 359 365 377 391 416 397 394 400 413 409 408 407 404 399 401 400 397 398 399 404 406 405 404

GFSNGP_2pvu_pres_171.txt.gz
Presure
211 210 203 212 210 205 224 225 168 212 162 160 163 185 190 204 202 228 193 236 200 187 215 214 213 214 211 206 207 206 207 209 210 210 211 204 183 198 185 207 208 170 181 189
201 221 208 209 207 173 223 205 207 211 209 168 171 219 215 208 213 212 210 209 207 207 207 205 202 203 203 200 196 194 193 192 192 187 185 185 200 188 171 192 207 192 205 203
171 189 187 188 188 196 202 192 184 202 204 198 188 205 203 199 199 199 220 198 153 200 205 224 197 192 189 192 158 167 170 179 141 179 185 194 201 191 176 205 179 188 185 173
186 182 184 230 216 187 181 171 212 188 209 188 200 187 157 226 202 190 189 179 134 162 174 194 201 213 189 178 194 188 207 166 172 168 160 174 171 135 180 176 209 178 177 159
157 201 189 213 176 194 225 228 222 179 185 182 184 192 191 186 187 184 181 182 194 197 192 184 173 189 199 192 189 210 234 167 183 234 145 234 211 168 236 186 205 183 203 140
206 182 158 206 206 149 178 208 217 198 171 216 199 206 151 168 226 182 197 227 218 220 222 197 224 224 209 213 228 231 188 227 156 180 207 246 220 181 246 195 135 222 172 195
149 145 150 174 160 173 163 164 170 204 184 180 198 185 150 197 173 217 218 206 238 237 237 228 167 181 171 151 168 180 165 213 217 193 163 231 237 223 214 217 207 227 182 254
188 183 171 171 144 158 163 172 155 156 195 183 173 174 172 182 200 196 180 157 169 219 222 194 168 167 187 224 224 235 181 245 199 182 239 233 224 229 254 166 180 184 239 262
174 172 207 202 155 193 198 165 211 162 214 210 204 189 205 189 191 205 211 201 183 222 222 132 219 171 225 215 228 248 250 233 234 256 241 225 234 236 247 254 196 254 280 272
182 200 200 211 161 175 200 207 213 207 200 209 217 210 206 209 202 203 222 219 109 221 182 208 207 227 233 226 236 222 240 233 239 237 256 230 249 251 219 262 257 244 247 282
181 198 198 188 192 205 200 217 216 214 203 217 216 213 219 198 216 216 216 241 232 229 231 225 247 225 247 234 243 224 243 248 244 251 245 238 249 239 238 223 231 283 245 321
199 202 201 192 194 200 202 212 213 208 220 228 227 233 236 245 269 245 141 234 227 224 242 244 238 242 277 244 254 241 241 251 240 215 247 260 220 247 258 248 301 322 276 273
196 195 209 223 226 192 201 213 216 224 85 234 251 233 251 90 247 225 283 258 295 267 318 334 297 250 253 277 255 245 252 258 238 225 281 265 256 263 305 318 302 326 320 312
204 211 209 215 218 224 218 221 227 227 245 234 202 234 122 286 288 290 314 320 334 324 333 317 304 307 322 310 266 319 316 263 272 310 316 323 312 330 347 345 331 321 319 313
203 212 207 213 224 220 230 224 238 267 261 270 266 307 307 216 320 351 347 294 279 265 296 335 333 323 319 313 316 321 337 333 373 380 381 374 364 362 353 347 343 336 325 319
228 225 219 229 233 223 260 279 262 252 285 318 322 356 368 372 373 328 358 352 332 352 370 273 296 350 366 363 366 367 363 353 341 355 366 361 362 354 369 366 366 354 341 325
238 236 223 233 249 268 271 253 295 312 314 313 375 374 387 313 324 329 332 325 320 315 350 323 295 297 325 315 311 350 346 391 387 398 400 401 392 387 383 377 367 362 375 367
253 266 257 264 280 322 299 307 338 383 361 312 323 327 358 355 355 356 358 367 367 380 389 382 397 401 396 391 387 385 386 380 378 380 376 379 379 380 379 386 389 387 383 380
262 279 296 293 306 281 333 326 340 344 370 359 370 371 372 370 373 379 389 392 386 384 380 382 384 382 377 371 369 367 361 358 357 359 359 358 359 361 362 363 366 366 372 374
280 289 301 323 302 374 312 371 396 398 391 384 380 374 378 372 373 370 369 366 360 361 364 363 356 352 353 353 353 360 404 404 359 356 358 419 417 413 412 457 524 520 465 408
294 294 396 390 348 407 403 399 385 377 378 375 370 369 366 363 361 359 358 358 354 359 360 354 362 408 410 408 405 401 400 401 404 411 410 418 432 477 483 492 494 427 437 444
419 419 418 412 403 392 377 373 366 366 365 361 356 353 353 352 349 346 346 341 355 363 384 386 381 392 405 405 404 402 402 406 416 420 422 429 454 465 466 468 466 421 425 440
409 407 397 380 372 370 363 353 350 352 348 343 405 448 452 439 424 415 409 394 397 402 409 407 402 400 407 416 419 415 408 401 399 395 393 414 434 440 446 440 401 415 424 439
387 375 365 355 353 353 352 349 344 353 372 364 436 448 461 444 422 411 410 405 420 428 432 401 396 385 377 367 367 376 381 378 391 407 384 419 416 424 423 410 406 412 417 424
363 353 348 346 347 340 331 332 378 352 340 343 352 361 427 435 425 398 384 370 355 353 359 357 355 357 359 356 356 393 381 408 421 389 408 416 407 413 408 395 395 403 410 414
104 345 347 337 329 356 373 357 343 365 372 369 374 371 364 358 353 354 354 347 351 350 347 348 357 350 346 357 383 409 410 394 391 399 414 406 404 404 403 391 388 391 397 405
347 339 326 353 357 358 358 358 361 360 354 356 358 356 351 353 361 358 359 351 351 348 346 345 347 351 370 379 403 408 401 410 407 414 406 401 401 394 394 394 392 386 393 397

GFSNGP_2pvu_pres_174.txt.gz
Presure
195 210 205 213 213 216 185 157 248 230 152 250 247 240 239 238 236 236 178 171 183 202 185 194 185 221 218 215 211 203 213 214 212 208 203 204 204 201 200 200 205 197 199 196
213 211 201 216 200 192 207 160 207 188 160 166 158 220 221 221 221 206 206 190 218 219 217 184 207 180 224 221 211 206 209 205 206 216 179 202 184 185 217 220 143 202 183 173
221 202 197 222 203 228 212 210 211 211 183 165 163 186 209 185 181 205 205 186 137 172 206 205 203 203 198 201 215 189 207 205 208 205 206 178 195 187 192 151 226 201 196 189
186 181 214 204 216 206 231 220 212 205 197 218 230 206 207 179 212 217 205 201 201 204 209 224 209 188 207 220 198 191 193 216 194 197 200 195 216 193 208 205 212 152 220 207
195 185 129 205 166 155 163 169 228 214 212 213 178 190 197 197 196 199 198 216 191 185 196 233 199 189 201 202 210 203 244 238 214 183 211 192 188 177 201 196 208 145 212 198
156 153 182 196 192 196 147 204 179 185 174 178 180 172 173 218 220 222 157 206 206 209 218 182 229 211 213 153 215 173 214 200 206 248 181 177 205 244 246 258 238 226 209 169
172 159 160 154 150 174 163 161 148 201 149 168 207 192 164 153 194 193 147 158 226 200 146 153 183 138 212 203 144 174 224 209 232 159 193 215 223 210 231 175 194 230 249 252
188 166 193 168 155 207 191 175 204 187 157 169 166 169 190 130 176 156 182 196 202 179 213 216 209 196 168 225 180 219 178 189 222 232 201 243 234 201 192 225 255 235 205 241
196 186 199 197 181 195 200 202 201 207 210 166 200 142 170 197 163 163 192 189 171 165 213 215 216 208 221 205 173 170 230 229 215 231 227 193 199 242 233 238 145 218 249 196
186 181 189 203 201 208 209 199 201 203 208 207 203 200 195 201 201 220 223 232 225 212 228 227 234 233 240 248 256 256 251 261 247 256 250 211 244 277 252 238 228 250 246 241
200 197 189 198 199 206 210 158 204 208 210 210 208 205 216 215 230 228 213 235 192 242 239 240 239 234 241 253 268 255 248 259 263 303 293 258 265 283 255 263 266 281 289 257
197 202 191 194 203 206 212 210 205 200 218 203 208 215 221 221 237 240 238 236 239 238 239 250 260 268 282 281 284 324 277 344 317 335 327 327 329 318 323 308 314 290 292 251
189 190 202 213 210 193 213 222 218 221 223 226 229 162 230 235 235 148 246 255 243 249 259 315 301 364 258 282 364 371 361 362 347 344 337 342 282 263 287 329 312 314 298 303
188 196 193 193 196 204 220 217 205 213 226 235 239 244 240 235 239 238 251 271 313 272 385 371 351 351 308 366 348 362 325 339 348 358 356 357 347 354 349 338 343 336 350 347
219 209 200 219 225 217 210 217 87 146 225 246 236 227 257 270 245 252 294 379 363 384 329 358 348 350 351 348 356 361 364 360 335 323 318 335 314 307 289 325 342 352 352 349
216 215 200 201 209 217 225 241 237 224 246 254 254 257 275 309 287 372 376 375 372 383 375 375 366 362 367 367 366 365 359 358 354 350 343 341 345 349 354 353 351 387 379 393
221 217 214 222 212 224 247 246 242 262 280 279 271 316 364 374 383 374 393 396 406 403 402 399 397 398 396 395 396 402 395 393 390 390 387 385 385 388 388 387 385 388 384 386
203 212 239 240 245 255 250 261 270 280 308 298 381 394 406 398 407 405 401 397 394 390 384 385 388 385 378 371 366 367 365 362 362 360 359 360 362 362 361 361 361 360 361 359
227 247 256 262 264 265 311 326 308 360 408 419 420 414 405 397 392 391 389 384 375 369 362 362 360 360 353 347 351 351 361 364 361 359 394 403 414 414 409 408 410 415 421 391
258 258 274 285 315 328 403 374 427 426 411 405 400 392 389 386 378 368 360 355 446 434 424 392 358 345 338 340 378 384 390 398 397 398 394 394 393 392 401 407 427 437 473 473
278 278 324 400 411 435 425 419 407 398 393 386 379 375 370 360 352 342 377 375 459 443 440 424 411 405 401 398 403 404 396 391 387 390 414 417 420 416 409 408 408 430 454 459
321 438 433 429 427 418 399 391 384 382 375 366 356 351 349 338 351 365 350 356 476 438 421 408 401 404 418 427 424 421 421 414 398 392 387 388 388 388 391 398 395 427 440 442
426 419 416 404 392 389 380 371 368 359 353 347 343 335 380 370 352 393 394 347 356 393 389 384 377 367 358 355 352 352 353 365 376 372 378 385 391 391 415 395 415 421 424 411
415 402 387 382 374 368 367 358 355 344 342 336 379 362 357 362 358 360 371 369 362 358 353 349 346 356 352 349 350 348 352 355 366 378 381 408 408 407 390 405 411 414 411 398
382 381 375 367 360 356 358 347 332 362 369 360 356 363 360 358 358 350 361 368 364 362 362 359 357 351 350 345 346 349 359 365 376 382 403 403 395 393 400 409 403 398 401 393
365 361 356 353 357 339 333 393 371 360 361 362 359 354 349 351 358 363 368 368 364 359 358 360 359 349 346 348 350 357 368 383 392 403 405 405 408 404 408 404 397 396 400 405
347 352 344 330 333 389 369 365 363 359 357 354 350 354 360 362 364 370 371 370 369 367 362 359 362 355 349 351 362 382 396 401 413 411 410 415 418 412 406 403 399 394 392 398

GFSNGP_2pvu_pres_177.txt.gz
Presure
221 221 236 224 177 156 251 196 197 178 163 168 149 151 197 144 152 198 198 199 197 203 207 209 203 232 218 239 231 191 212 203 212 221 193 188 213 223 212 159 169 187 199 195
233 224 206 219 224 228 168 239 166 237 246 248 161 158 153 160 236 191 158 159 158 215 244 242 163 168 219 211 213 152 204 216 163 167 213 215 183 213 208 211 218 207 211 206
202 220 201 195 198 197 196 202 211 217 222 225 226 226 228 227 227 228 186 210 224 184 185 220 185 216 205 142 154 205 211 216 214 213 195 187 217 223 229 174 189 264 203 253
186 193 177 211 198 184 199 199 212 215 209 213 215 212 204 199 208 205 201 201 197 200 205 204 205 205 205 209 218 216 218 208 213 216 227 235 230 204 203 217 201 220 193 210
157 167 203 127 176 145 132 184 151 131 201 185 210 211 178 163 199 191 209 197 199 193 151 225 219 212 195 222 184 204 199 187 187 200 198 188 153 201 191 185 168 214 176 185
167 157 195 164 179 181 202 154 173 136 126 197 165 202 159 151 184 212 204 200 201 140 191 212 185 201 142 159 145 183 186 226 228 140 210 197 231 173 185 183 236 232 180 240
182 186 170 156 187 162 185 208 161 161 164 164 163 196 188 188 209 162 164 163 196 153 198 190 163 166 171 181 186 180 195 172 164 206 216 168 176 220 194 229 220 175 189 220
198 187 197 179 189 205 200 162 163 160 174 175 187 202 209 191 210 198 205 210 190 211 184 198 200 182 216 193 209 215 200 180 228 211 211 239 200 235 227 252 250 262 254 251
184 204 212 199 155 208 170 158 189 187 164 202 189 186 177 199 201 206 209 162 161 224 220 213 161 211 213 214 211 226 225 226 244 244 256 259 250 259 254 260 261 259 272 285
177 205 202 205 210 207 199 198 196 198 199 199 193 198 203 159 217 216 213 205 220 231 225 224 225 225 228 233 247 245 244 249 251 240 251 263 263 268 274 298 283 325 319 330
203 195 183 188 188 201 213 211 209 214 214 208 210 210 210 213 224 223 216 229 238 227 228 228 228 228 231 241 248 260 256 254 246 273 281 261 275 290 348 351 333 349 331 333
188 181 208 206 198 195 196 208 216 216 217 222 217 210 227 231 229 222 220 213 225 224 226 230 241 245 251 253 264 271 271 300 292 350 377 376 378 371 339 366 366 362 365 370
204 205 198 191 209 211 199 197 195 206 220 226 233 239 226 214 222 228 226 226 234 244 251 255 267 277 270 278 393 408 400 395 392 388 358 389 350 361 382 371 332 339 335 340
179 179 188 197 186 217 213 215 202 213 221 232 230 219 226 248 247 229 237 245 256 264 278 304 405 407 388 394 393 391 387 389 389 389 383 377 370 370 368 375 362 357 350 351
207 205 212 204 218 220 219 211 212 213 220 231 231 239 244 256 259 264 259 273 281 285 393 398 405 419 428 433 438 425 417 410 400 396 394 395 390 390 387 383 382 379 370 363
180 208 215 211 213 213 217 224 216 222 220 227 243 255 259 274 289 295 301 389 394 403 440 431 427 427 420 402 396 391 386 383 384 383 380 376 374 375 375 379 383 384 385 385
212 218 224 207 203 228 214 230 235 240 250 257 259 277 288 290 292 425 424 426 430 429 417 399 396 383 370 374 379 378 370 362 361 361 357 358 361 362 361 360 360 361 359 361
222 219 227 228 227 217 228 243 251 261 279 291 328 339 433 428 426 426 418 415 404 379 373 373 363 364 384 380 460 449 428 396 375 351 347 349 346 349 366 379 404 376 373 374
229 232 230 234 243 255 261 261 277 292 413 432 429 427 426 417 408 405 391 380 365 360 355 351 390 373 356 453 443 429 414 408 403 399 399 399 393 392 391 390 394 395 397 402
237 245 252 256 263 276 285 271 449 443 424 431 420 413 405 395 387 371 363 355 342 375 399 381 398 380 363 426 414 409 407 404 403 404 405 407 399 393 392 397 408 411 408 406
256 261 273 274 301 326 444 437 434 424 420 409 399 390 385 374 360 357 354 366 374 364 368 366 376 384 367 358 395 380 378 378 375 376 381 375 377 374 370 364 365 411 379 379
274 284 312 292 442 439 424 411 405 402 396 385 373 363 362 363 351 407 377 363 360 363 364 359 366 364 379 375 351 356 360 359 356 353 354 354 356 361 385 388 393 408 414 418
307 363 436 434 430 415 403 390 385 381 371 359 362 360 358 406 376 357 364 363 358 355 354 350 357 361 364 365 360 364 358 349 340 337 347 359 378 388 390 394 406 399 390 395
419 415 406 397 398 386 385 375 370 355 358 353 417 399 372 364 362 359 359 352 347 352 361 364 369 372 364 360 368 365 352 350 346 352 369 385 391 395 396 402 398 398 396 409
410 395 390 385 380 376 368 364 357 346 405 389 367 360 360 355 357 352 350 358 360 363 364 366 371 373 376 376 371 368 353 349 363 380 390 395 397 401 404 405 412 406 408 404
384 377 378 373 365 359 351 353 386 386 372 364 351 340 343 357 366 372 375 377 379 379 380 378 378 379 385 385 381 364 356 369 388 403 406 408 411 411 413 422 417 409 402 396
378 372 368 358 344 346 384 383 371 360 349 345 362 377 388 392 389 394 406 411 409 404 389 380 378 379 393 395 370 367 378 400 419 422 420 423 429 431 432 422 414 407 387 382

GFSNGP_2pvu_pres_180.txt.gz
Presure
225 176 170 163 148 158 165 193 179 176 146 195 169 193 195 144 178 161 183 187 189 189 183 153 147 171 182 196 197 178 172 174 205 231 244 225 228 230 156 225 218 215 216 214
232 236 240 252 228 212 159 156 157 155 190 144 143 155 179 179 146 180 191 149 150 152 154 191 194 164 152 153 154 212 242 240 238 232 226 224 223 224 206 206 202 183 217 220
201 169 208 221 225 229 233 234 235 241 216 182 161 192 194 160 195 184 189 200 204 177 225 248 179 237 236 234 229 226 219 218 217 204 203 197 203 206 180 199 207 207 170 207
165 159 140 196 189 198 196 197 209 214 224 225 224 224 225 227 228 229 227 223 223 215 209 204 200 198 202 209 217 218 222 202 211 204 208 203 188 217 208 186 189 193 214 182
163 158 182 147 205 155 177 181 203 123 151 205 149 206 200 208 205 138 202 202 155 203 202 201 186 197 204 147 202 203 194 202 205 203 138 191 211 217 221 197 214 148 194 189
170 187 193 182 167 165 195 159 162 176 195 214 177 158 204 193 202 194 147 130 192 206 189 175 199 202 114 163 178 193 221 188 222 213 172 216 140 165 209 180 180 159 229 229
203 201 186 203 206 199 189 178 194 201 164 188 201 185 182 184 171 164 183 206 171 154 152 174 179 180 182 204 214 211 191 214 223 220 199 228 213 230 193 198 195 247 250 166
202 200 195 195 190 192 195 206 176 210 213 211 188 183 207 191 191 200 172 207 178 199 158 158 200 169 181 213 191 164 223 223 221 217 228 233 239 244 247 247 246 238 239 239
181 176 178 193 192 188 190 204 207 207 206 201 188 190 201 208 202 212 220 225 223 215 172 170 224 228 162 225 225 225 230 245 244 237 231 229 238 239 242 240 251 267 271 275
193 204 196 196 200 193 200 203 203 201 201 200 207 211 199 193 201 203 194 205 206 211 174 210 215 227 231 233 240 242 249 247 218 238 241 243 242 253 262 267 274 296 337 333
190 202 210 204 198 191 195 197 188 188 200 190 209 199 202 204 208 215 214 225 233 235 232 226 229 228 231 234 247 252 255 254 269 277 293 294 303 347 387 350 339 388 392 387
204 206 195 196 198 200 198 197 186 200 207 214 212 211 204 220 221 224 232 233 216 221 235 238 243 241 249 261 273 283 312 293 368 290 404 379 393 413 413 413 411 408 402 394
190 180 195 188 189 186 181 189 203 204 205 208 210 196 213 217 228 232 229 226 242 250 252 253 262 275 284 324 349 408 412 445 442 468 459 438 430 424 421 415 408 406 403 401
186 186 182 189 187 187 200 208 197 201 208 211 214 214 218 232 228 227 233 252 245 254 275 287 299 387 325 435 440 451 450 437 429 420 409 405 400 394 392 393 399 390 382 385
192 203 195 191 201 214 206 200 205 199 204 209 214 227 230 238 243 244 246 270 278 300 310 422 439 444 457 447 426 414 400 390 387 382 380 380 390 375 370 369 373 376 371 363
193 187 203 210 226 199 207 221 204 207 212 220 227 228 234 241 256 258 272 286 349 450 449 445 446 423 409 397 386 382 378 373 404 405 390 378 445 431 408 390 360 360 361 356
189 187 112 199 218 230 214 214 209 219 231 227 235 242 249 256 273 283 320 305 356 446 424 404 398 392 382 373 371 369 414 417 403 458 449 439 428 419 410 398 387 377 351 349
217 210 201 201 223 218 204 211 238 246 232 242 226 258 256 273 383 440 440 433 417 402 385 380 379 373 362 384 391 380 396 396 381 422 421 416 412 408 405 403 401 399 395 391
197 201 198 219 214 224 232 235 227 243 246 255 261 270 276 440 433 419 412 402 386 376 368 367 358 369 381 371 373 372 377 375 377 362 366 384 405 424 419 413 411 410 405 402
219 225 234 237 236 236 226 239 247 246 246 262 274 311 423 413 408 399 386 375 363 367 360 358 378 366 371 370 365 359 364 375 364 361 366 369 366 360 353 351 350 351 356 362
233 240 231 234 230 241 246 247 258 269 281 425 328 407 401 396 383 375 369 365 353 390 377 368 369 366 363 359 355 358 371 372 367 361 362 361 346 342 345 342 345 345 350 359
233 239 236 240 249 250 252 264 289 418 336 404 399 392 382 372 367 363 360 400 377 370 371 363 356 353 352 355 360 360 364 371 369 366 367 366 350 347 341 346 362 389 398 397
233 247 248 256 268 302 413 298 414 411 405 394 379 365 360 354 384 387 373 368 360 349 350 356 357 357 361 365 367 371 371 369 373 374 369 366 351 348 375 390 396 399 401 404
257 250 254 322 305 414 415 407 404 396 381 367 358 346 401 381 372 361 354 353 371 380 387 388 386 379 376 376 374 377 376 378 378 384 379 348 363 384 403 403 405 407 408 405
301 324 319 420 411 404 403 397 382 365 356 357 397 372 361 351 354 374 383 385 387 387 382 377 380 395 404 402 397 388 374 377 388 389 369 376 396 416 417 415 415 416 414 420
353 416 415 396 401 393 379 365 351 384 398 377 360 343 358 380 393 393 382 378 380 380 379 378 374 369 376 379 381 375 382 393 390 380 395 421 432 424 424 429 432 434 431 424
403 382 403 390 373 364 351 386 398 375 358 350 371 389 405 380 370 375 378 375 374 375 372 373 379 386 391 383 384 390 405 401 399 417 440 404 385 384 383 385 387 387 387 387